| time (UTC) | temp F | wind direction | speed MPH | gust MPH | rain 1hr in | rain 24hr in | rain mn in | humidity % | barometer mb |
| 20260905051558 | 55 | 299 | 0.0 | 0.0 | 0.00 | 0.00 | 0.00 | 90 | 1015.0 |
| 20260905050058 | 56 | 299 | 0.0 | 0.0 | 0.00 | 0.00 | 0.00 | 90 | 1015.1 |
| 20260905044557 | 56 | 299 | 0.0 | 0.0 | 0.00 | 0.00 | 0.00 | 89 | 1015.0 |
| 20260905043114 | 56 | 299 | 0.0 | 0.0 | 0.00 | 0.00 | 0.00 | 88 | 1014.9 |
| 20260905041555 | 57 | 299 | 0.0 | 0.0 | 0.00 | 0.00 | 0.00 | 87 | 1014.7 |
| 20260905040115 | 58 | 299 | 0.0 | 0.0 | 0.00 | 0.00 | 0.00 | 86 | 1014.5 |
| 20260905034558 | 58 | 299 | 0.0 | 0.0 | 0.00 | 0.00 | 0.00 | 84 | 1014.5 |
| 20260905033055 | 59 | 299 | 0.0 | 3.0 | 0.00 | 0.00 | 0.00 | 82 | 1014.3 |
| 20260905031553 | 60 | 20 | 0.0 | 0.0 | 0.00 | 0.00 | 0.00 | 81 | 1014.1 |
| 20260905030053 | 60 | 20 | 0.0 | 0.0 | 0.00 | 0.00 | 0.00 | 78 | 1014.1 |
| 20260905024552 | 61 | 355 | 0.0 | 6.0 | 0.00 | 0.00 | 0.00 | 77 | 1014.0 |
| 20260905023058 | 61 | 42 | 0.0 | 5.0 | 0.00 | 0.00 | 0.00 | 75 | 1014.0 |
| 20260905021552 | 62 | 14 | 0.0 | 3.0 | 0.00 | 0.00 | 0.00 | 74 | 1013.9 |
| 20260905020051 | 63 | 350 | 2.0 | 9.0 | 0.00 | 0.00 | 0.00 | 73 | 1013.9 |
| 20260905014550 | 63 | 37 | 1.0 | 5.0 | 0.00 | 0.00 | 0.00 | 71 | 1013.9 |
| 20260905013057 | 63 | 38 | 1.0 | 16.0 | 0.00 | 0.00 | 0.00 | 69 | 1014.0 |
| 20260905011551 | 64 | 240 | 2.0 | 12.0 | 0.00 | 0.00 | 0.00 | 68 | 1013.9 |
| 20260905010052 | 64 | 117 | 1.0 | 6.0 | 0.00 | 0.00 | 0.00 | 68 | 1013.9 |
| 20260905004548 | 65 | 264 | 2.0 | 10.0 | 0.00 | 0.00 | 0.00 | 66 | 1013.8 |
| 20260905003047 | 66 | 157 | 2.0 | 10.0 | 0.00 | 0.00 | 0.00 | 62 | 1013.9 |
| 20260905001547 | 68 | 360 | 1.0 | 8.0 | 0.00 | 0.00 | 0.00 | 59 | 1013.8 |
| 20260905000047 | 69 | 107 | 1.0 | 12.0 | 0.00 | 0.00 | 0.00 | 58 | 1013.9 |
| 20260904234550 | 70 | 195 | 2.0 | 10.0 | 0.00 | 0.00 | 0.00 | 55 | 1014.0 |
| 20260904233045 | 70 | 182 | 1.0 | 9.0 | 0.00 | 0.00 | 0.00 | 54 | 1013.9 |
| 20260904231545 | 71 | 167 | 1.0 | 10.0 | 0.00 | 0.00 | 0.00 | 53 | 1013.9 |
| 20260904230045 | 72 | 111 | 2.0 | 6.0 | 0.00 | 0.00 | 0.00 | 53 | 1014.0 |
| 20260904224546 | 72 | 328 | 1.0 | 10.0 | 0.00 | 0.01 | 0.00 | 55 | 1014.0 |
| 20260904223043 | 71 | 95 | 0.0 | 8.0 | 0.00 | 0.01 | 0.00 | 55 | 1014.2 |
| 20260904221543 | 71 | 179 | 2.0 | 9.0 | 0.00 | 0.01 | 0.00 | 53 | 1014.3 |
| 20260904220106 | 72 | 161 | 3.0 | 8.0 | 0.00 | 0.01 | 0.00 | 53 | 1014.3 |
| 20260904214542 | 73 | 151 | 1.0 | 5.0 | 0.00 | 0.01 | 0.00 | 54 | 1014.4 |
| 20260904213041 | 72 | 21 | 1.0 | 9.0 | 0.00 | 0.01 | 0.00 | 54 | 1014.4 |
| 20260904211545 | 73 | 175 | 2.0 | 8.0 | 0.00 | 0.01 | 0.00 | 54 | 1014.4 |
| 20260904210046 | 72 | 311 | 2.0 | 10.0 | 0.00 | 0.01 | 0.00 | 55 | 1014.5 |
| 20260904204539 | 71 | 318 | 3.0 | 9.0 | 0.00 | 0.01 | 0.00 | 53 | 1014.4 |
| 20260904203047 | 70 | 341 | 1.0 | 8.0 | 0.00 | 0.01 | 0.00 | 61 | 1014.4 |
| 20260904201531 | 70 | 225 | 0.0 | 8.0 | 0.00 | 0.01 | 0.00 | 63 | 1014.3 |
| 20260904200031 | 69 | 156 | 3.0 | 9.0 | 0.00 | 0.01 | 0.00 | 63 | 1014.4 |
| 20260904194531 | 69 | 180 | 0.0 | 4.0 | 0.00 | 0.01 | 0.00 | 64 | 1014.4 |
| 20260904193028 | 69 | 201 | 1.0 | 5.0 | 0.00 | 0.01 | 0.00 | 66 | 1014.5 |
| 20260904191530 | 68 | 215 | 0.0 | 4.0 | 0.00 | 0.01 | 0.00 | 68 | 1014.6 |
| 20260904190022 | 68 | 134 | 0.0 | 4.0 | 0.00 | 0.01 | 0.00 | 73 | 1014.7 |
| 20260904184526 | 68 | 143 | 0.0 | 3.0 | 0.00 | 0.01 | 0.00 | 77 | 1014.8 |
| 20260904183017 | 67 | 137 | 0.0 | 8.0 | 0.00 | 0.01 | 0.00 | 79 | 1014.7 |
| 20260904181513 | 65 | 145 | 0.0 | 2.0 | 0.00 | 0.01 | 0.00 | 83 | 1014.8 |
| 20260904180009 | 64 | 133 | 0.0 | 3.0 | 0.00 | 0.01 | 0.00 | 88 | 1014.9 |
| 20260904174505 | 59 | 124 | 0.0 | 3.0 | 0.00 | 0.06 | 0.00 | 91 | 1014.8 |
| 20260904173100 | 57 | 125 | 0.0 | 2.0 | 0.00 | 0.06 | 0.00 | 93 | 1014.8 |
| 20260904171600 | 56 | 98 | 0.0 | 0.0 | 0.00 | 0.06 | 0.00 | 94 | 1014.7 |
| 20260904170059 | 54 | 92 | 0.0 | 0.0 | 0.00 | 0.06 | 0.00 | 93 | 1014.7 |
| 20260904164600 | 53 | 93 | 0.0 | 0.0 | 0.00 | 0.12 | 0.00 | 93 | 1014.7 |
| 20260904163057 | 52 | 92 | 0.0 | 0.0 | 0.00 | 0.12 | 0.00 | 93 | 1014.7 |
| 20260904161618 | 51 | 349 | 0.0 | 0.0 | 0.00 | 0.12 | 0.00 | 93 | 1014.7 |
| 20260904160057 | 51 | 349 | 0.0 | 0.0 | 0.00 | 0.12 | 0.00 | 93 | 1014.7 |
| 20260904154555 | 50 | 349 | 0.0 | 0.0 | 0.00 | 0.19 | 0.00 | 93 | 1014.7 |
| 20260904153056 | 49 | 349 | 0.0 | 0.0 | 0.00 | 0.19 | 0.00 | 93 | 1014.6 |
| 20260904151553 | 49 | 349 | 0.0 | 0.0 | 0.00 | 0.19 | 0.00 | 92 | 1014.5 |
| 20260904150058 | 49 | 349 | 0.0 | 0.0 | 0.00 | 0.19 | 0.00 | 92 | 1014.4 |
| 20260904144601 | 49 | 349 | 0.0 | 0.0 | 0.00 | 0.25 | 0.00 | 92 | 1014.2 |
| 20260904143053 | 49 | 349 | 0.0 | 0.0 | 0.00 | 0.25 | 0.00 | 92 | 1014.1 |
| 20260904141547 | 48 | 349 | 0.0 | 0.0 | 0.00 | 0.25 | 0.00 | 92 | 1013.9 |
| 20260904140055 | 48 | 349 | 0.0 | 0.0 | 0.00 | 0.25 | 0.00 | 92 | 1013.7 |
| 20260904134548 | 48 | 349 | 0.0 | 0.0 | 0.00 | 0.28 | 0.00 | 92 | 1013.6 |
| 20260904133041 | 48 | 349 | 0.0 | 0.0 | 0.00 | 0.28 | 0.00 | 92 | 1013.3 |
| 20260904131539 | 48 | 349 | 0.0 | 0.0 | 0.00 | 0.28 | 0.00 | 92 | 1013.2 |
| 20260904130037 | 49 | 349 | 0.0 | 0.0 | 0.00 | 0.28 | 0.00 | 91 | 1013.0 |
| 20260904124535 | 49 | 349 | 0.0 | 0.0 | 0.00 | 0.31 | 0.00 | 91 | 1012.9 |
| 20260904123033 | 49 | 349 | 0.0 | 0.0 | 0.00 | 0.31 | 0.00 | 91 | 1012.8 |
| 20260904121533 | 50 | 349 | 0.0 | 0.0 | 0.00 | 0.31 | 0.00 | 91 | 1012.8 |
| 20260904120031 | 50 | 349 | 0.0 | 0.0 | 0.00 | 0.31 | 0.00 | 91 | 1012.7 |
| 20260904114536 | 51 | 349 | 0.0 | 0.0 | 0.00 | 0.32 | 0.00 | 91 | 1012.7 |
| 20260904113032 | 51 | 349 | 0.0 | 0.0 | 0.00 | 0.32 | 0.00 | 91 | 1012.7 |
| 20260904111525 | 51 | 349 | 0.0 | 0.0 | 0.00 | 0.32 | 0.00 | 91 | 1012.7 |
| 20260904110023 | 52 | 349 | 0.0 | 0.0 | 0.00 | 0.32 | 0.00 | 91 | 1012.6 |
| 20260904104522 | 52 | 349 | 0.0 | 0.0 | 0.00 | 0.32 | 0.00 | 91 | 1012.6 |
| 20260904103020 | 53 | 349 | 0.0 | 0.0 | 0.00 | 0.32 | 0.00 | 91 | 1012.5 |
| 20260904101519 | 53 | 349 | 0.0 | 0.0 | 0.00 | 0.32 | 0.00 | 91 | 1012.5 |
| 20260904100017 | 53 | 349 | 0.0 | 0.0 | 0.00 | 0.32 | 0.00 | 91 | 1012.5 |
| 20260904094526 | 53 | 349 | 0.0 | 0.0 | 0.00 | 0.32 | 0.00 | 91 | 1012.4 |
| 20260904093013 | 54 | 349 | 0.0 | 0.0 | 0.00 | 0.32 | 0.00 | 91 | 1012.3 |
| 20260904091511 | 54 | 349 | 0.0 | 0.0 | 0.00 | 0.32 | 0.00 | 91 | 1012.4 |
| 20260904090009 | 55 | 349 | 0.0 | 0.0 | 0.00 | 0.32 | 0.00 | 91 | 1012.4 |
| 20260904084508 | 56 | 349 | 0.0 | 0.0 | 0.00 | 0.32 | 0.00 | 91 | 1012.4 |
| 20260904083007 | 56 | 323 | 0.0 | 4.0 | 0.00 | 0.32 | 0.00 | 91 | 1012.4 |
| 20260904081507 | 55 | 325 | 0.0 | 6.0 | 0.00 | 0.32 | 0.00 | 91 | 1012.4 |
| 20260904080006 | 55 | 298 | 0.0 | 4.0 | 0.00 | 0.32 | 0.00 | 91 | 1012.3 |
| 20260904074504 | 55 | 340 | 0.0 | 3.0 | 0.00 | 0.32 | 0.00 | 91 | 1012.3 |
| 20260904073002 | 56 | 342 | 0.0 | 3.0 | 0.00 | 0.32 | 0.00 | 91 | 1012.3 |
| 20260904071500 | 56 | 163 | 0.0 | 0.0 | 0.00 | 0.32 | 0.00 | 91 | 1012.2 |
| 20260904070059 | 56 | 163 | 0.0 | 0.0 | 0.00 | 0.32 | 0.00 | 91 | 1012.2 |
| 20260904064620 | 57 | 163 | 0.0 | 0.0 | 0.00 | 0.32 | 0.32 | 90 | 1012.2 |
| 20260904063117 | 58 | 163 | 0.0 | 0.0 | 0.00 | 0.32 | 0.32 | 90 | 1012.2 |
| 20260904061557 | 58 | 163 | 0.0 | 0.0 | 0.00 | 0.32 | 0.32 | 90 | 1012.2 |
| 20260904060110 | 59 | 163 | 0.0 | 0.0 | 0.00 | 0.32 | 0.32 | 90 | 1012.2 |
| 20260904054557 | 59 | 186 | 0.0 | 3.0 | 0.00 | 0.32 | 0.32 | 89 | 1012.3 |
| 20260904053056 | 59 | 342 | 0.0 | 3.0 | 0.00 | 0.32 | 0.32 | 89 | 1012.5 |